AFL1029 ULAA-ULLI

Flight info

Callsign AFL1029
Flight time 1h 19m
Altitude 36000
Route MAKOG3K MAKOG T821 ROGID M856 GIKUR T458 BEPOL BEPOL1W
Aircraft A320/M-RA73753/LB1

Departure

Time 2026-05-04 07:59
Airport Talagi Airport (ULAA)

Arrival

Time 2026-05-04 09:19
Airport Pulkovo Airport (ULLI)
Time Latitude Longitude Altitude Speed Heading
2026-05-04 07:33 64.59769 40.71615 40 ft 0 kts
2026-05-04 07:52 64.59774 40.71616 40 ft 4 kts
2026-05-04 07:52 64.59804 40.71636 40 ft 4 kts 34°
2026-05-04 07:52 64.59813 40.71685 38 ft 3 kts 81°
2026-05-04 07:53 64.59810 40.71790 38 ft 9 kts 96°
2026-05-04 07:54 64.59769 40.72626 40 ft 7 kts 96°
2026-05-04 07:55 64.59764 40.72738 40 ft 6 kts 96°
2026-05-04 07:55 64.59759 40.72834 40 ft 6 kts 96°
2026-05-04 07:55 64.59752 40.72982 40 ft 14 kts 96°
2026-05-04 07:55 64.59741 40.73195 40 ft 13 kts 96°
2026-05-04 07:56 64.59732 40.73387 40 ft 11 kts 96°
2026-05-04 07:56 64.59723 40.73558 40 ft 10 kts 96°
2026-05-04 07:56 64.59713 40.73707 40 ft 9 kts 105°
2026-05-04 07:56 64.59702 40.73837 40 ft 8 kts 97°
2026-05-04 07:57 64.59695 40.73987 38 ft 13 kts 96°
2026-05-04 07:57 64.59705 40.74171 39 ft 10 kts 44°
2026-05-04 07:57 64.59763 40.74197 40 ft 8 kts
2026-05-04 07:57 64.59816 40.74211 40 ft 7 kts
2026-05-04 07:58 64.59870 40.74224 37 ft 9 kts
2026-05-04 07:58 64.59908 40.74139 36 ft 9 kts 276°
2026-05-04 07:58 64.59909 40.74106 35 ft 0 kts 275°
2026-05-04 07:58 64.59922 40.73837 35 ft 55 kts 277°
2026-05-04 07:59 64.60000 40.72242 34 ft 139 kts 276°
2026-05-04 07:59 64.60125 40.69668 460 ft 171 kts 276°
2026-05-04 07:59 64.60260 40.66889 1382 ft 171 kts 276°
2026-05-04 07:59 64.60395 40.64088 2101 ft 180 kts 276°
2026-05-04 08:00 64.60552 40.60998 2573 ft 203 kts 277°
2026-05-04 08:00 64.60736 40.57551 3083 ft 227 kts 277°
2026-05-04 08:00 64.60915 40.53724 3654 ft 246 kts 276°
2026-05-04 08:02 64.55203 40.29688 10229 ft 277 kts 230°
2026-05-04 08:02 64.53807 40.26324 10584 ft 299 kts 231°
2026-05-04 08:02 64.52369 40.22737 11268 ft 306 kts 232°
2026-05-04 08:03 64.50930 40.19065 12118 ft 309 kts 232°
2026-05-04 08:03 64.49496 40.15353 12986 ft 310 kts 233°
2026-05-04 08:03 64.48056 40.11603 13811 ft 312 kts 233°
2026-05-04 08:03 64.46627 40.07883 14534 ft 314 kts 233°
2026-05-04 08:04 64.45166 40.04091 15252 ft 316 kts 234°
2026-05-04 08:04 64.43692 40.00281 15967 ft 319 kts 234°
2026-05-04 08:04 64.42201 39.96444 16647 ft 321 kts 234°
2026-05-04 08:04 64.40705 39.92598 17380 ft 323 kts 234°
2026-05-04 08:05 64.39192 39.88724 18071 ft 326 kts 234°
2026-05-04 08:05 64.37663 39.84821 18669 ft 329 kts 234°
2026-05-04 08:05 64.36119 39.80886 19268 ft 331 kts 235°
2026-05-04 08:05 64.34567 39.76930 19867 ft 334 kts 235°
2026-05-04 08:06 64.33004 39.72948 20463 ft 336 kts 235°
2026-05-04 08:06 64.31431 39.68942 21042 ft 338 kts 235°
2026-05-04 08:06 64.29847 39.64907 21606 ft 341 kts 235°
2026-05-04 08:06 64.28251 39.60852 22174 ft 343 kts 235°
2026-05-04 08:08 64.16692 39.31811 25286 ft 363 kts 235°
2026-05-04 08:08 64.14979 39.27537 25697 ft 366 kts 235°
2026-05-04 08:10 64.01474 38.91731 28923 ft 378 kts 240°
2026-05-04 08:11 63.99860 38.86972 29298 ft 381 kts 240°
2026-05-04 08:11 63.96588 38.77369 29900 ft 387 kts 239°
2026-05-04 08:11 63.94928 38.72525 30203 ft 389 kts 239°
2026-05-04 08:12 63.93278 38.67724 30461 ft 392 kts 238°
2026-05-04 08:12 63.91595 38.62839 30733 ft 394 kts 238°
2026-05-04 08:12 63.89900 38.57920 31008 ft 396 kts 238°
2026-05-04 08:12 63.88200 38.52991 31276 ft 398 kts 238°
2026-05-04 08:13 63.86485 38.48041 31592 ft 399 kts 238°
2026-05-04 08:13 63.84767 38.43104 31983 ft 398 kts 238°
2026-05-04 08:13 63.83050 38.38180 32367 ft 398 kts 238°
2026-05-04 08:13 63.81336 38.33264 32749 ft 397 kts 238°
2026-05-04 08:14 63.79628 38.28364 33120 ft 397 kts 237°
2026-05-04 08:14 63.77919 38.23475 33446 ft 396 kts 237°
2026-05-04 08:14 63.76206 38.18589 33796 ft 396 kts 237°
2026-05-04 08:16 63.64151 37.84432 35555 ft 401 kts 236°
2026-05-04 08:16 63.62404 37.79525 35771 ft 402 kts 236°
2026-05-04 08:16 63.60650 37.74626 35848 ft 401 kts 236°
2026-05-04 08:17 63.57159 37.64939 35815 ft 398 kts 236°
2026-05-04 08:17 63.53682 37.55271 35849 ft 398 kts 236°
2026-05-04 08:19 63.39693 37.16848 35841 ft 398 kts 236°
2026-05-04 08:20 63.36187 37.07310 35806 ft 398 kts 236°
2026-05-04 08:20 63.32677 36.97795 35805 ft 398 kts 236°
2026-05-04 08:21 63.29186 36.88369 35813 ft 398 kts 235°
2026-05-04 08:21 63.25653 36.78888 35818 ft 398 kts 235°
2026-05-04 08:22 63.22112 36.69442 35818 ft 398 kts 235°
2026-05-04 08:24 63.05616 36.35893 35825 ft 403 kts 227°
2026-05-04 08:24 63.01437 36.27646 35823 ft 404 kts 227°
2026-05-04 08:25 62.97278 36.19461 35822 ft 404 kts 227°
2026-05-04 08:25 62.93085 36.11252 35822 ft 404 kts 227°
2026-05-04 08:27 62.76320 35.78431 35817 ft 404 kts 227°
2026-05-04 08:28 62.72126 35.70248 35821 ft 404 kts 227°
2026-05-04 08:28 62.67924 35.62095 35824 ft 405 kts 227°
2026-05-04 08:29 62.63731 35.54020 35814 ft 405 kts 227°
2026-05-04 08:31 62.46817 35.21666 35830 ft 405 kts 227°
2026-05-04 08:33 62.29835 34.89984 35838 ft 403 kts 226°
2026-05-04 08:35 62.12760 34.58856 35835 ft 402 kts 227°
2026-05-04 08:35 62.08495 34.51157 35840 ft 401 kts 227°
2026-05-04 08:37 61.93611 34.24506 35781 ft 400 kts 227°
2026-05-04 08:38 61.89358 34.16929 35819 ft 397 kts 230°
2026-05-04 08:38 61.85897 34.08118 35830 ft 387 kts 239°
2026-05-04 08:40 61.72886 33.71928 35782 ft 386 kts 238°
2026-05-04 08:41 61.69638 33.62999 35799 ft 386 kts 238°
2026-05-04 08:41 61.66366 33.54023 35805 ft 386 kts 238°
2026-05-04 08:42 61.63088 33.45067 35808 ft 386 kts 238°
2026-05-04 08:42 61.59803 33.36135 35809 ft 386 kts 238°
2026-05-04 08:43 61.56519 33.27239 35811 ft 386 kts 238°
2026-05-04 08:43 61.53225 33.18346 35797 ft 386 kts 238°
2026-05-04 08:44 61.49918 33.09459 35806 ft 387 kts 238°
2026-05-04 08:46 61.35307 32.78557 35808 ft 393 kts 230°
2026-05-04 08:46 61.31353 32.70696 35784 ft 393 kts 230°
2026-05-04 08:47 61.26937 32.63818 35788 ft 407 kts 212°
2026-05-04 08:47 61.24234 32.61806 35798 ft 419 kts 200°
2026-05-04 08:47 61.21307 32.60979 35802 ft 429 kts 192°
2026-05-04 08:48 61.15346 32.60182 35796 ft 430 kts 192°
2026-05-04 08:48 61.09371 32.59399 35797 ft 430 kts 192°
2026-05-04 08:49 61.03396 32.58591 35802 ft 430 kts 192°
2026-05-04 08:50 60.82509 32.55629 35796 ft 432 kts 192°
2026-05-04 08:51 60.76509 32.54775 35795 ft 432 kts 192°
2026-05-04 08:51 60.70547 32.53553 35485 ft 425 kts 199°
2026-05-04 08:52 60.67636 32.52428 35222 ft 425 kts 199°
2026-05-04 08:52 60.64732 32.51311 34993 ft 425 kts 199°
2026-05-04 08:52 60.61827 32.50200 34740 ft 424 kts 199°
2026-05-04 08:52 60.58973 32.49114 34493 ft 422 kts 199°
2026-05-04 08:53 60.56095 32.48022 34254 ft 420 kts 199°
2026-05-04 08:54 60.36520 32.40648 31174 ft 397 kts 199°
2026-05-04 08:55 60.33817 32.39635 30679 ft 393 kts 199°
2026-05-04 08:55 60.31137 32.38631 30176 ft 391 kts 199°
2026-05-04 08:55 60.28474 32.37633 29646 ft 388 kts 198°
2026-05-04 08:55 60.25833 32.36647 29143 ft 383 kts 198°
2026-05-04 08:57 60.08739 32.28339 26037 ft 330 kts 226°
2026-05-04 09:01 60.04674 31.68999 20331 ft 304 kts 266°
2026-05-04 09:01 60.04565 31.64782 19937 ft 302 kts 266°
2026-05-04 09:01 60.04457 31.60587 19548 ft 301 kts 266°
2026-05-04 09:01 60.04350 31.56421 19160 ft 299 kts 266°
2026-05-04 09:02 60.04242 31.52272 18782 ft 298 kts 266°
2026-05-04 09:02 60.04130 31.48140 18398 ft 297 kts 266°
2026-05-04 09:02 60.04016 31.44026 18010 ft 296 kts 266°
2026-05-04 09:02 60.03902 31.39931 17598 ft 294 kts 266°
2026-05-04 09:03 60.03785 31.35863 17238 ft 292 kts 265°
2026-05-04 09:03 60.03600 31.31821 16848 ft 291 kts 263°
2026-05-04 09:03 60.03358 31.27800 16471 ft 290 kts 262°
2026-05-04 09:03 60.03095 31.23815 16096 ft 289 kts 262°
2026-05-04 09:04 60.02826 31.19842 15730 ft 288 kts 262°
2026-05-04 09:04 60.02565 31.15937 15356 ft 286 kts 262°
2026-05-04 09:04 60.02305 31.12008 14996 ft 284 kts 262°
2026-05-04 09:04 60.02050 31.08089 14632 ft 283 kts 262°
2026-05-04 09:05 60.01799 31.04196 14266 ft 282 kts 262°
2026-05-04 09:05 60.01549 31.00312 13902 ft 281 kts 262°
2026-05-04 09:05 60.01299 30.96442 13543 ft 281 kts 262°
2026-05-04 09:05 60.01048 30.92579 13151 ft 280 kts 262°
2026-05-04 09:06 60.00798 30.88740 12790 ft 278 kts 262°
2026-05-04 09:07 59.99043 30.62385 10338 ft 268 kts 261°
2026-05-04 09:08 59.98796 30.58741 9988 ft 267 kts 261°
2026-05-04 09:08 59.98548 30.55081 9645 ft 265 kts 261°
2026-05-04 09:08 59.98302 30.51445 9276 ft 263 kts 261°
2026-05-04 09:08 59.98057 30.47842 8940 ft 261 kts 261°
2026-05-04 09:09 59.97813 30.44263 8599 ft 259 kts 261°
2026-05-04 09:09 59.97569 30.40706 8267 ft 258 kts 261°
2026-05-04 09:09 59.97324 30.37164 7937 ft 257 kts 261°
2026-05-04 09:09 59.97078 30.33634 7594 ft 256 kts 261°
2026-05-04 09:10 59.96833 30.30116 7280 ft 256 kts 261°
2026-05-04 09:10 59.96586 30.26601 6956 ft 255 kts 261°
2026-05-04 09:10 59.96339 30.23101 6624 ft 254 kts 260°
2026-05-04 09:10 59.96091 30.19610 6300 ft 254 kts 261°
2026-05-04 09:11 59.95844 30.16137 5958 ft 253 kts 261°
2026-05-04 09:11 59.95600 30.12718 5636 ft 251 kts 260°
2026-05-04 09:11 59.95352 30.09275 5316 ft 250 kts 260°
2026-05-04 09:11 59.95104 30.05850 4996 ft 250 kts 261°
2026-05-04 09:12 59.94856 30.02425 4672 ft 248 kts 261°
2026-05-04 09:12 59.94613 29.99062 4366 ft 242 kts 260°
2026-05-04 09:14 59.87913 29.89831 2966 ft 213 kts 158°
2026-05-04 09:14 59.86599 29.91078 2805 ft 210 kts 158°
2026-05-04 09:14 59.85327 29.92322 2657 ft 195 kts 152°
2026-05-04 09:14 59.84352 29.94028 2553 ft 179 kts 132°
2026-05-04 09:15 59.83772 29.96109 2520 ft 165 kts 114°
2026-05-04 09:15 59.83456 29.98208 2439 ft 153 kts 110°
2026-05-04 09:15 59.83167 30.00182 2282 ft 147 kts 111°
2026-05-04 09:15 59.82884 30.02123 2116 ft 145 kts 110°
2026-05-04 09:17 59.80723 30.16847 645 ft 137 kts 109°
2026-05-04 09:18 59.80451 30.18667 437 ft 137 kts 107°
2026-05-04 09:18 59.80193 30.20491 244 ft 137 kts 108°
2026-05-04 09:18 59.79923 30.22291 118 ft 136 kts 108°
2026-05-04 09:18 59.79677 30.23956 86 ft 107 kts 106°
2026-05-04 09:19 59.79517 30.25035 85 ft 57 kts 107°
2026-05-04 09:19 59.79507 30.25550 84 ft 30 kts 82°
2026-05-04 09:19 59.79519 30.25742 86 ft 6 kts 79°
2026-05-04 09:19 59.79528 30.25819 88 ft 6 kts 75°
2026-05-04 09:20 59.79541 30.25897 89 ft 5 kts 70°
2026-05-04 09:20 59.79553 30.25984 85 ft 10 kts 84°
2026-05-04 09:20 59.79532 30.26144 85 ft 12 kts 107°
2026-05-04 09:20 59.79509 30.26296 87 ft 11 kts 105°
2026-05-04 09:21 59.79550 30.26377 83 ft 9 kts 14°
2026-05-04 09:21 59.79608 30.26408 84 ft 8 kts 17°
2026-05-04 09:21 59.79663 30.26441 87 ft 8 kts 17°
2026-05-04 09:21 59.79680 30.26518 83 ft 6 kts 100°
2026-05-04 09:22 59.79676 30.26538 84 ft 0 kts 107°
2026-05-04 09:22 59.79672 30.26564 82 ft 2 kts 107°
2026-05-04 09:22 59.79672 30.26568 84 ft 0 kts 107°